TimeMDT,TemperatureF,Dew PointF,Humidity,Sea Level PressureIn,VisibilityMPH,Wind Direction,Wind SpeedMPH,Gust SpeedMPH,PrecipitationIn,Events,Conditions,WindDirDegrees,DateUTC
12:15 AM,35.6,21.2,56,30.44,10.0,East,5.8,-,N/A,,Clear,90,2013-03-15 06:15:00
12:35 AM,35.6,21.2,56,30.44,10.0,ESE,5.8,-,N/A,,Clear,120,2013-03-15 06:35:00
12:55 AM,35.6,21.2,56,30.43,10.0,East,4.6,-,N/A,,Clear,90,2013-03-15 06:55:00
1:15 AM,33.8,21.2,60,30.43,10.0,SE,6.9,-,N/A,,Clear,130,2013-03-15 07:15:00
1:35 AM,35.6,19.4,52,30.42,10.0,SE,6.9,-,N/A,,Clear,140,2013-03-15 07:35:00
1:55 AM,33.8,21.2,60,30.42,10.0,ESE,5.8,-,N/A,,Clear,110,2013-03-15 07:55:00
2:15 AM,35.6,19.4,52,30.42,10.0,ESE,6.9,-,N/A,,Clear,120,2013-03-15 08:15:00
2:35 AM,35.6,19.4,52,30.41,10.0,ESE,8.1,-,N/A,,Clear,120,2013-03-15 08:35:00
2:55 AM,35.6,19.4,52,30.41,10.0,ESE,5.8,-,N/A,,Clear,110,2013-03-15 08:55:00
3:15 AM,35.6,19.4,52,30.40,10.0,East,4.6,-,N/A,,Clear,90,2013-03-15 09:15:00
3:35 AM,35.6,19.4,52,30.39,10.0,SE,6.9,-,N/A,,Clear,130,2013-03-15 09:35:00
3:55 AM,33.8,19.4,56,30.39,10.0,SE,8.1,-,N/A,,Clear,130,2013-03-15 09:55:00
4:15 AM,35.6,17.6,48,30.37,10.0,ESE,9.2,-,N/A,,Clear,120,2013-03-15 10:15:00
4:35 AM,33.8,19.4,56,30.37,10.0,SE,5.8,-,N/A,,Clear,130,2013-03-15 10:35:00
4:55 AM,35.6,17.6,48,30.37,10.0,East,6.9,-,N/A,,Clear,100,2013-03-15 10:55:00
5:15 AM,33.8,17.6,52,30.37,10.0,East,6.9,-,N/A,,Clear,80,2013-03-15 11:15:00
5:35 AM,35.6,17.6,48,30.37,10.0,ESE,6.9,-,N/A,,Clear,120,2013-03-15 11:35:00
5:55 AM,35.6,17.6,48,30.36,10.0,ESE,6.9,-,N/A,,Clear,120,2013-03-15 11:55:00
6:15 AM,33.8,17.6,52,30.36,10.0,SE,8.1,-,N/A,,Clear,130,2013-03-15 12:15:00
6:35 AM,35.6,17.6,48,30.35,10.0,SE,8.1,-,N/A,,Clear,130,2013-03-15 12:35:00
6:55 AM,33.8,17.6,52,30.36,10.0,SE,8.1,-,N/A,,Clear,130,2013-03-15 12:55:00
7:15 AM,33.8,17.6,52,30.36,10.0,ESE,6.9,-,N/A,,Clear,120,2013-03-15 13:15:00
7:35 AM,35.6,17.6,48,30.35,10.0,ESE,8.1,-,N/A,,Clear,110,2013-03-15 13:35:00
7:55 AM,33.8,17.6,52,30.35,10.0,SE,5.8,-,N/A,,Clear,130,2013-03-15 13:55:00
8:15 AM,33.8,17.6,52,30.35,10.0,ESE,6.9,-,N/A,,Clear,120,2013-03-15 14:15:00
8:35 AM,35.6,17.6,48,30.34,10.0,SE,8.1,-,N/A,,Clear,130,2013-03-15 14:35:00
8:55 AM,39.2,15.8,39,30.34,10.0,ESE,5.8,-,N/A,,Clear,120,2013-03-15 14:55:00
9:55 AM,44.6,17.6,34,30.34,10.0,Calm,Calm,-,N/A,,Clear,0,2013-03-15 15:55:00
10:15 AM,44.6,17.6,34,30.33,10.0,Calm,Calm,-,N/A,,Clear,0,2013-03-15 16:15:00
10:35 AM,46.4,19.4,34,30.33,10.0,Calm,Calm,-,N/A,,Clear,0,2013-03-15 16:35:00
10:55 AM,50.0,19.4,30,30.33,10.0,Calm,Calm,-,N/A,,Clear,0,2013-03-15 16:55:00
11:15 AM,51.8,19.4,28,30.33,10.0,Calm,Calm,-,N/A,,Clear,0,2013-03-15 17:15:00
11:35 AM,53.6,12.2,19,30.32,10.0,WSW,6.9,-,N/A,,Clear,250,2013-03-15 17:35:00
11:55 AM,55.4,12.2,18,30.32,10.0,West,6.9,16.1,N/A,,Clear,270,2013-03-15 17:55:00
12:15 PM,53.6,14.0,21,30.31,10.0,WSW,6.9,-,N/A,,Clear,250,2013-03-15 18:15:00
12:35 PM,53.6,14.0,21,30.31,10.0,West,6.9,17.3,N/A,,Clear,270,2013-03-15 18:35:00
12:55 PM,53.6,14.0,21,30.30,10.0,WSW,9.2,17.3,N/A,,Clear,250,2013-03-15 18:55:00
1:15 PM,53.6,14.0,21,30.30,10.0,WSW,12.7,-,N/A,,Clear,250,2013-03-15 19:15:00
1:35 PM,53.6,15.8,22,30.29,10.0,WSW,11.5,-,N/A,,Clear,240,2013-03-15 19:35:00
1:55 PM,53.6,14.0,21,30.28,10.0,SW,12.7,18.4,N/A,,Clear,230,2013-03-15 19:55:00
2:15 PM,53.6,14.0,21,30.27,10.0,WSW,10.4,18.4,N/A,,Clear,250,2013-03-15 20:15:00
2:35 PM,53.6,14.0,21,30.26,10.0,SW,11.5,18.4,N/A,,Clear,230,2013-03-15 20:35:00
2:55 PM,53.6,14.0,21,30.26,10.0,West,11.5,16.1,N/A,,Scattered Clouds,270,2013-03-15 20:55:00
3:15 PM,53.6,14.0,21,30.24,10.0,West,8.1,-,N/A,,Scattered Clouds,280,2013-03-15 21:15:00
3:35 PM,51.8,14.0,22,30.23,10.0,West,10.4,17.3,N/A,,Scattered Clouds,260,2013-03-15 21:35:00
3:55 PM,53.6,14.0,21,30.23,10.0,WSW,6.9,-,N/A,,Mostly Cloudy,250,2013-03-15 21:55:00
4:15 PM,53.6,14.0,21,30.22,10.0,West,6.9,-,N/A,,Scattered Clouds,280,2013-03-15 22:15:00
4:35 PM,53.6,12.2,19,30.22,10.0,Calm,Calm,-,N/A,,Clear,0,2013-03-15 22:35:00
4:55 PM,53.6,14.0,21,30.21,10.0,West,5.8,-,N/A,,Clear,260,2013-03-15 22:55:00
5:15 PM,53.6,14.0,21,30.20,10.0,WSW,5.8,-,N/A,,Clear,240,2013-03-15 23:15:00
5:35 PM,53.6,12.2,19,30.20,10.0,West,5.8,-,N/A,,Clear,280,2013-03-15 23:35:00
5:55 PM,51.8,14.0,22,30.19,10.0,West,6.9,-,N/A,,Clear,280,2013-03-15 23:55:00
6:15 PM,51.8,14.0,22,30.19,10.0,West,10.4,17.3,N/A,,Clear,260,2013-03-16 00:15:00
6:35 PM,51.8,14.0,22,30.19,10.0,West,8.1,-,N/A,,Clear,260,2013-03-16 00:35:00
6:55 PM,50.0,14.0,24,30.19,10.0,West,3.5,-,N/A,,Clear,280,2013-03-16 00:55:00
7:15 PM,50.0,15.8,26,30.19,10.0,Calm,Calm,-,N/A,,Clear,0,2013-03-16 01:15:00
7:35 PM,48.2,17.6,30,30.20,10.0,Calm,Calm,-,N/A,,Clear,0,2013-03-16 01:35:00
7:55 PM,48.2,17.6,30,30.20,10.0,Calm,Calm,-,N/A,,Clear,0,2013-03-16 01:55:00
8:15 PM,48.2,17.6,30,30.20,10.0,Calm,Calm,-,N/A,,Clear,0,2013-03-16 02:15:00
8:55 PM,44.6,19.4,37,30.20,10.0,Calm,Calm,-,N/A,,Clear,0,2013-03-16 02:55:00
9:15 PM,44.6,19.4,37,30.19,10.0,Calm,Calm,-,N/A,,Clear,0,2013-03-16 03:15:00
9:35 PM,42.8,19.4,39,30.20,10.0,SSE,3.5,-,N/A,,Clear,150,2013-03-16 03:35:00
9:55 PM,42.8,19.4,39,30.19,10.0,ESE,8.1,-,N/A,,Clear,120,2013-03-16 03:55:00
10:15 PM,42.8,19.4,39,30.19,10.0,ESE,5.8,-,N/A,,Clear,110,2013-03-16 04:15:00
10:35 PM,41.0,19.4,42,30.19,10.0,East,6.9,-,N/A,,Clear,100,2013-03-16 04:35:00
10:55 PM,41.0,19.4,42,30.19,10.0,SE,4.6,-,N/A,,Clear,130,2013-03-16 04:55:00
11:15 PM,41.0,21.2,45,30.18,10.0,ESE,4.6,-,N/A,,Clear,120,2013-03-16 05:15:00
11:35 PM,39.2,19.4,45,30.18,10.0,SE,6.9,-,N/A,,Clear,130,2013-03-16 05:35:00
11:55 PM,37.4,21.2,52,30.18,10.0,SE,6.9,-,N/A,,Clear,130,2013-03-16 05:55:00